[[{"header":{"parameterUnit":"m.s-1","parameterCategory":1,"la1":30.2991,"la2":30.254,"lo1":-89.0895,"lo2":-89.0444,"dy":0.0017,"dx":0.0017,"nx":28,"ny":28,"refTime":"2023-06-27T21:00:00:Z","depth":0,"parameterNumber":2,"parameterNumberName":"U-component_of_WINDS"},"data":[0,0,0,0,0,0,0,0,0,0,0,0,0,0,0,0,0,0,0,0,0,0,0,0,0,0,0,0,0,0,0,0,0,0,0,0,0,0,0,0,0,0,0,0,0,0,0,0,0,0,0,0,0,0,0,0,0,0,1.5978,1.5977,0,1.5902,1.5901,1.59,1.58,1.5799,1.5797,1.5795,1.5722,1.5722,1.5722,0,0,0,0,0,0,0,0,0,0,0,0,0,1.6042,1.6042,1.5978,1.5977,1.5976,1.5902,1.5901,1.59,1.5801,1.5799,1.5797,1.5795,1.5723,1.5722,1.5722,0,0,0,0,0,0,0,0,0,0,0,0,0,1.5995,1.6041,1.5978,1.5918,1.5911,1.5902,1.5901,1.5899,1.5801,1.5798,1.5796,1.5794,1.5723,1.5722,1.5722,1.5767,0,0,1.572,1.5719,0,0,0,0,0,0,0,0,1.5998,1.5993,1.5928,1.5922,1.5915,1.5858,1.5896,1.5855,1.5802,1.5843,1.5795,1.5792,1.577,1.5765,1.5756,1.5764,1.5761,1.572,1.5719,1.5719,1.5719,0,0,0,0,0,0,0,1.6001,1.5996,1.5948,1.5927,1.5919,1.5895,1.5886,1.5888,1.5822,1.5839,1.5832,1.5824,1.5766,1.5757,1.5754,1.576,1.572,1.5719,1.5719,1.5718,1.58,1.5802,0,0,0,0,0,0,1.6013,1.5999,1.595,1.5946,1.5951,1.5896,1.5886,1.5879,1.5821,1.581,1.5826,1.5819,1.576,1.5755,1.5751,1.5801,1.5719,1.5718,1.5718,1.5797,1.58,1.5803,0,0,0,0,0,0,1.6015,1.601,1.5953,1.597,1.5961,1.5898,1.5891,1.5879,1.587,1.5811,1.5799,1.5829,1.5757,1.5752,1.5763,1.5797,1.5718,1.5718,1.5794,1.5798,1.5802,1.5901,0,0,0,0,0,0,1.6017,1.6011,1.6027,1.5971,1.5961,1.5967,1.5893,1.5879,1.5868,1.5859,1.5811,1.5801,1.5755,1.5765,1.5763,1.5795,1.5717,1.5791,1.5796,1.5801,1.5895,1.5908,1.5919,0,0,0,0,0,1.602,1.6059,1.6028,1.6023,1.5979,1.5969,1.5963,1.5908,1.5871,1.5887,1.5849,1.5802,1.5793,1.5767,1.5764,1.5796,1.5789,1.5795,1.58,1.5889,1.5905,1.5919,0,0,0,0,0,0,1.6123,1.6051,1.6016,1.6038,1.601,1.5952,1.5971,1.5927,1.591,1.5902,1.5836,1.5827,1.5846,1.5822,1.5794,1.5837,1.5784,1.5789,1.5852,1.5867,1.5879,1.5886,1.5717,0,0,0,0,0,1.6148,1.6143,1.6081,1.6107,1.6094,1.6035,1.6028,1.5988,1.5957,1.5946,1.5908,1.5882,1.5872,1.5868,1.5856,1.5889,1.5878,1.591,1.5922,1.5933,1.5939,1.5955,1.5969,1.5822,1.5822,1.5822,0,0,1.62,1.616,1.6162,1.6127,1.61,1.6099,1.6026,1.6028,1.6026,1.5946,1.5955,1.5926,1.5892,1.5914,1.5923,1.5895,1.5976,1.594,1.5949,1.5949,1.5962,1.5976,1.5989,1.5826,1.5825,1.5824,0,0,1.6295,1.6264,1.6282,1.6256,1.6215,1.6175,1.618,1.6127,1.6105,1.6111,1.6051,1.6049,1.6035,1.6013,1.6,1.6084,1.604,1.6082,1.6147,1.6163,1.6175,1.6185,1.6216,1.6228,1.6088,1.6088,1.6088,0,1.6366,1.636,1.6297,1.6302,1.6289,1.6213,1.6231,1.621,1.6169,1.6162,1.6131,1.611,1.6082,1.6098,1.6118,1.611,1.6114,1.6088,1.6178,1.6187,1.6196,1.6225,1.6237,1.6093,1.6093,1.6092,1.6092,0,1.645,1.6446,1.6465,1.6425,1.6414,1.6426,1.6366,1.6362,1.6322,1.6286,1.6294,1.6256,1.6235,1.6236,1.6198,1.6247,1.6231,1.619,1.6136,1.6216,1.6243,1.6253,1.6101,1.6099,1.6098,1.6096,0,0,1.6611,1.6533,1.6542,1.6522,1.6471,1.6468,1.6476,1.6454,1.6452,1.6426,1.6432,1.642,1.6381,1.6367,1.6325,1.6339,1.6409,1.6296,1.6294,1.632,1.6462,1.6495,1.6509,1.6379,1.6381,1.6382,1.6466,0,1.6698,1.6706,1.6648,1.6673,1.6669,1.6596,1.6603,1.6574,1.6539,1.6532,1.6494,1.6488,1.6436,1.6426,1.6437,1.6399,1.6438,1.6392,1.6386,1.6387,1.6399,1.6523,1.6558,1.6639,1.6475,1.6477,1.6478,0,1.6801,1.6778,1.6801,1.6747,1.6744,1.6751,1.6726,1.6719,1.6684,1.6657,1.664,1.6591,1.6597,1.6543,1.6551,1.6521,1.6515,1.6496,1.6497,1.6497,1.6439,1.6527,1.6663,1.6676,1.6494,1.6492,1.6491,0,1.6918,1.6892,1.6903,1.6888,1.6826,1.6833,1.6807,1.6769,1.6759,1.6737,1.673,1.6709,1.6699,1.6685,1.6633,1.6598,1.6647,1.6589,1.6627,1.6629,1.6643,1.6643,1.6782,1.6635,1.6635,1.6635,1.6635,0,1.7022,1.704,1.6954,1.6962,1.6979,1.6913,1.6933,1.69,1.6866,1.6867,1.6802,1.6804,1.6733,1.6728,1.6687,1.67,1.6695,1.6676,1.6665,1.6683,1.6686,1.668,1.6674,1.6638,1.6638,1.6637,1.6636,0,1.7158,1.7101,1.7108,1.7046,1.7031,1.7047,1.6995,1.7,1.696,1.6961,1.6958,1.6896,1.6886,1.6831,1.6809,1.6782,1.681,1.6787,1.6822,1.6815,1.6858,1.6855,1.6999,1.7015,1.6857,1.6859,1.686,0,1.723,1.7241,1.718,1.7174,1.7151,1.7143,1.7131,1.7066,1.7057,1.7016,1.7026,1.701,1.6994,1.6982,1.6937,1.6919,1.6897,1.6948,1.6894,1.6912,1.69,1.6901,1.6902,1.6961,1.6963,1.6965,1.6966,0,1.7364,1.7334,1.7319,1.7294,1.7281,1.7259,1.7232,1.7232,1.7159,1.7153,1.714,1.7128,1.7103,1.7089,1.7064,1.7039,1.6992,1.6983,1.6991,1.7011,1.7031,1.7023,1.6856,1.6981,1.6979,1.6978,1.6977,1.6977,1.7471,1.7477,1.7435,1.742,1.7392,1.7369,1.737,1.7329,1.7317,1.7291,1.7252,1.7246,1.7209,1.7169,1.7148,1.7143,1.7115,1.7127,1.7131,1.7135,1.7145,1.703,1.7138,1.7137,1.7137,1.7136,1.7136,0,1.7603,1.7571,1.7558,1.7522,1.751,1.7462,1.743,1.7425,1.7419,1.7387,1.7372,1.7358,1.7343,1.7295,1.7275,1.7281,1.7258,1.7278,1.7278,1.7274,1.717,1.7165,1.7296,1.7296,1.7296,1.7296,1.7296,1.7296,1.7671,1.768,1.7645,1.7639,1.7607,1.7598,1.7584,1.7563,1.7537,1.7524,1.751,1.7477,1.744,1.7417,1.7401,1.7388,1.7385,1.7412,1.7392,1.7296,1.7281,1.7266,1.7262,1.7411,1.7412,1.7497,1.7497,1.7498]},{"header":{"parameterUnit":"m.s-1","parameterCategory":1,"la1":30.2991,"la2":30.254,"lo1":-89.0895,"lo2":-89.0444,"dy":0.0017,"dx":0.0017,"nx":28,"ny":28,"refTime":"2023-06-27T21:00:00:Z","depth":0,"parameterNumber":3,"parameterNumberName":"V-component_of_WINDS"},"data":[0,0,0,0,0,0,0,0,0,0,0,0,0,0,0,0,0,0,0,0,0,0,0,0,0,0,0,0,0,0,0,0,0,0,0,0,0,0,0,0,0,0,0,0,0,0,0,0,0,0,0,0,0,0,0,0,0,0,-0.3397,-0.3397,0,-0.3405,-0.3405,-0.3405,-0.3408,-0.3408,-0.3408,-0.3408,-0.3416,-0.3416,-0.3416,0,0,0,0,0,0,0,0,0,0,0,0,0,-0.3385,-0.3385,-0.3397,-0.3397,-0.3397,-0.3405,-0.3405,-0.3405,-0.3408,-0.3408,-0.3408,-0.3408,-0.3416,-0.3416,-0.3416,0,0,0,0,0,0,0,0,0,0,0,0,0,-0.3391,-0.3385,-0.3397,-0.34,-0.34,-0.3405,-0.3405,-0.3405,-0.3408,-0.3408,-0.3408,-0.3408,-0.3416,-0.3416,-0.3416,-0.3419,0,0,-0.3417,-0.3417,0,0,0,0,0,0,0,0,-0.339,-0.3391,-0.3399,-0.34,-0.34,-0.3406,-0.3403,-0.341,-0.3408,-0.3405,-0.3408,-0.3408,-0.3412,-0.3413,-0.3414,-0.3419,-0.3419,-0.3417,-0.3418,-0.3418,-0.3418,0,0,0,0,0,0,0,-0.339,-0.3391,-0.34,-0.3399,-0.34,-0.34,-0.3401,-0.3404,-0.3409,-0.3405,-0.3406,-0.3407,-0.3413,-0.3414,-0.3415,-0.3419,-0.3417,-0.3418,-0.3418,-0.3418,-0.3425,-0.3425,0,0,0,0,0,0,-0.3389,-0.3391,-0.34,-0.34,-0.3395,-0.3401,-0.3402,-0.3404,-0.3409,-0.341,-0.3407,-0.3407,-0.3414,-0.3414,-0.3415,-0.3418,-0.3418,-0.3418,-0.3418,-0.3425,-0.3425,-0.3425,0,0,0,0,0,0,-0.3389,-0.339,-0.34,-0.3396,-0.3397,-0.3401,-0.3403,-0.3404,-0.3406,-0.341,-0.341,-0.3407,-0.3414,-0.3415,-0.3418,-0.3418,-0.3418,-0.3418,-0.3425,-0.3425,-0.3425,-0.3423,0,0,0,0,0,0,-0.3389,-0.339,-0.3391,-0.3396,-0.3397,-0.3402,-0.3403,-0.3404,-0.3406,-0.3406,-0.3411,-0.3411,-0.3414,-0.3417,-0.3418,-0.3418,-0.3419,-0.3425,-0.3425,-0.3425,-0.3423,-0.3423,-0.3423,0,0,0,0,0,-0.3388,-0.339,-0.3391,-0.3392,-0.3399,-0.3402,-0.3403,-0.3406,-0.3406,-0.3407,-0.341,-0.3411,-0.3418,-0.3417,-0.3418,-0.3419,-0.3425,-0.3425,-0.3425,-0.3423,-0.3423,-0.3423,0,0,0,0,0,0,-0.3386,-0.3391,-0.3392,-0.3396,-0.3398,-0.3403,-0.3404,-0.3406,-0.3409,-0.3409,-0.3412,-0.3413,-0.3415,-0.3417,-0.3417,-0.3421,-0.3422,-0.3422,-0.342,-0.3419,-0.3419,-0.3419,-0.3419,0,0,0,0,0,-0.3386,-0.3389,-0.3393,-0.3396,-0.3397,-0.34,-0.3402,-0.3404,-0.3407,-0.3408,-0.3411,-0.3414,-0.3416,-0.3418,-0.3421,-0.3423,-0.3424,-0.3424,-0.3424,-0.3424,-0.3424,-0.3425,-0.3425,-0.3425,-0.3425,-0.3425,0,0,-0.3386,-0.3389,-0.3391,-0.3395,-0.3398,-0.34,-0.3401,-0.3404,-0.3406,-0.3409,-0.3412,-0.3413,-0.3417,-0.3419,-0.3421,-0.3421,-0.3424,-0.3424,-0.3424,-0.3424,-0.3425,-0.3425,-0.3425,-0.3425,-0.3425,-0.3425,0,0,-0.3387,-0.339,-0.3392,-0.3394,-0.3398,-0.34,-0.34,-0.3404,-0.3406,-0.3409,-0.3411,-0.3412,-0.3417,-0.3419,-0.3421,-0.3422,-0.3423,-0.3422,-0.3422,-0.3423,-0.3423,-0.3423,-0.3423,-0.3423,-0.3422,-0.3422,-0.3422,0,-0.3387,-0.3391,-0.3393,-0.3396,-0.3398,-0.34,-0.3402,-0.3404,-0.3408,-0.3409,-0.3409,-0.3415,-0.3417,-0.342,-0.342,-0.3421,-0.3422,-0.3422,-0.3422,-0.3423,-0.3423,-0.3423,-0.3423,-0.3422,-0.3422,-0.3422,-0.3422,0,-0.339,-0.3393,-0.3394,-0.3398,-0.34,-0.3402,-0.3405,-0.3406,-0.3407,-0.3409,-0.3412,-0.3414,-0.3417,-0.3418,-0.342,-0.3421,-0.3421,-0.3422,-0.3423,-0.3422,-0.3423,-0.3423,-0.3422,-0.3422,-0.3422,-0.3422,0,0,-0.3391,-0.3395,-0.3396,-0.3397,-0.3401,-0.3403,-0.3405,-0.3408,-0.3409,-0.3411,-0.3413,-0.3416,-0.3417,-0.3418,-0.342,-0.3421,-0.3421,-0.3421,-0.3421,-0.3421,-0.3422,-0.3422,-0.3422,-0.3421,-0.3421,-0.3421,-0.3422,0,-0.3393,-0.3397,-0.3399,-0.3402,-0.3404,-0.3406,-0.3407,-0.3409,-0.3411,-0.3413,-0.3414,-0.3416,-0.3417,-0.3418,-0.3419,-0.3421,-0.3421,-0.342,-0.3423,-0.3423,-0.3422,-0.3422,-0.3422,-0.3422,-0.3422,-0.3422,-0.3422,0,-0.3396,-0.3398,-0.3402,-0.3404,-0.3405,-0.3407,-0.3409,-0.3411,-0.3413,-0.3414,-0.3415,-0.3416,-0.3418,-0.3418,-0.342,-0.342,-0.3421,-0.3422,-0.3422,-0.3422,-0.3423,-0.3422,-0.3422,-0.3422,-0.3422,-0.3422,-0.3422,0,-0.3397,-0.34,-0.3403,-0.3404,-0.3407,-0.3408,-0.3409,-0.3411,-0.3412,-0.3414,-0.3415,-0.3417,-0.3418,-0.3419,-0.342,-0.342,-0.3422,-0.3423,-0.3423,-0.3423,-0.3424,-0.3424,-0.3424,-0.3424,-0.3424,-0.3424,-0.3424,0,-0.3399,-0.3401,-0.3403,-0.3404,-0.3406,-0.3408,-0.341,-0.3411,-0.3412,-0.3414,-0.3415,-0.3416,-0.3418,-0.3419,-0.342,-0.3422,-0.3422,-0.3423,-0.3423,-0.3423,-0.3423,-0.3424,-0.3424,-0.3424,-0.3424,-0.3424,-0.3424,0,-0.34,-0.3401,-0.3404,-0.3406,-0.3407,-0.3408,-0.341,-0.3411,-0.3412,-0.3414,-0.3414,-0.3416,-0.3417,-0.3419,-0.3421,-0.3422,-0.3423,-0.3423,-0.3422,-0.3423,-0.3423,-0.3423,-0.3424,-0.3424,-0.3424,-0.3424,-0.3424,0,-0.3402,-0.3403,-0.3405,-0.3406,-0.3407,-0.3409,-0.341,-0.3411,-0.3412,-0.3414,-0.3415,-0.3416,-0.3418,-0.342,-0.3421,-0.3422,-0.3423,-0.3423,-0.3423,-0.3423,-0.3423,-0.3423,-0.3423,-0.3423,-0.3423,-0.3423,-0.3423,0,-0.3404,-0.3404,-0.3406,-0.3408,-0.3409,-0.341,-0.3411,-0.3412,-0.3413,-0.3414,-0.3416,-0.3417,-0.3418,-0.342,-0.3421,-0.3422,-0.3423,-0.3423,-0.3423,-0.3423,-0.3422,-0.3423,-0.3422,-0.3423,-0.3423,-0.3423,-0.3423,-0.3423,-0.3406,-0.3407,-0.3408,-0.341,-0.3411,-0.3412,-0.3413,-0.3413,-0.3415,-0.3416,-0.3417,-0.3418,-0.3419,-0.3421,-0.3421,-0.3422,-0.3422,-0.3423,-0.3423,-0.3423,-0.3423,-0.3422,-0.3422,-0.3422,-0.3422,-0.3422,-0.3422,0,-0.3408,-0.3409,-0.341,-0.3412,-0.3413,-0.3413,-0.3414,-0.3415,-0.3416,-0.3417,-0.3418,-0.3419,-0.342,-0.3421,-0.3422,-0.3422,-0.3422,-0.3422,-0.3423,-0.3423,-0.3423,-0.3422,-0.3422,-0.3422,-0.3422,-0.3422,-0.3422,-0.3422,-0.341,-0.3412,-0.3412,-0.3414,-0.3414,-0.3416,-0.3416,-0.3417,-0.3418,-0.3419,-0.342,-0.342,-0.3421,-0.3421,-0.3422,-0.3422,-0.3423,-0.3422,-0.3423,-0.3423,-0.3423,-0.3423,-0.3423,-0.3423,-0.3423,-0.3423,-0.3423,-0.3423]}]]